Meteo Giornale » Osservazioni meteo Italia » Roma-Ciampino

ore: 14:50 - Osservazioni Meteo Roma-Ciampino
Lat. 41° 47' N Lon. 12° 35' E Alt. 129 metri s.l.m.

sereno Europe/Rome

17 °C

Sereno

Temp. 24 Ore

10 °C

18 °C

Nord-Est

11.1 Km/h

Dew point 4 °C

Umidità 41 %

Visibilità  10 Km

Il sole sorge alle ore 06:59

Il sole tramonta alle ore 16:49

Data e Ora Cielo e Fenomeni T °C DP °C Um. % Pres. hPa Vis. km Vento km/h
Oggi h: 14:50 sereno Sereno 17 4 41 1018 10 NE 11.1
Oggi h: 14:20 sereno Sereno 18 5 42 1018 10 N 7.4
Oggi h: 13:50 sereno Sereno 18 7 48 1018 10 N/NE 9.3
Oggi h: 13:20 sereno Sereno 18 7 48 1018 10 N 7.4
Oggi h: 12:50 sereno Sereno 17 8 55 1018 10 N 9.3
Oggi h: 12:20 sereno Sereno 17 8 55 1019 10 N 11.1
Oggi h: 11:50 sereno Sereno 16 9 63 1019 10 N 13
Oggi h: 11:20 sereno Sereno 15 9 67 1019 10 N 11.1
Oggi h: 10:20 sereno Sereno 13 9 76 1020 10 N 9.3
Oggi h: 09:50 sereno Sereno 12 9 81 1020 10 N/NE 13
Oggi h: 09:20 sereno Sereno 11 8 81 1020 10 N/NE 13
Oggi h: 08:50 sereno Sereno 12 8 76 1020 10 N 14.8
Oggi h: 08:20 sereno Sereno 11 8 81 1020 10 N/NE 11.1
Oggi h: 07:50 sereno Sereno 11 8 81 1020 10 NE 14.8
Oggi h: 07:20 sereno Sereno 11 8 81 1019 10 N/NE 13
Oggi h: 06:50 poco_nuvoloso Poco Nuvoloso 10 8 87 1020 10 N/NE 11.1
Oggi h: 06:20 sereno Sereno 11 8 81 1019 10 N/NE 14.8
Oggi h: 05:50 sereno Sereno 11 8 81 1019 10 NE 11.1
Oggi h: 05:20 sereno Sereno 11 8 81 1020 10 NE 13
Oggi h: 04:50 sereno Sereno 11 9 87 1020 10 N/NE 14.8
Oggi h: 04:20 sereno Sereno 11 9 87 1020 10 N/NE 9.3
Oggi h: 03:50 sereno Sereno 10 9 93 1020 10 N/NE 11.1
Oggi h: 03:20 sereno Sereno 10 9 93 1020 10 N 7.4
Oggi h: 02:50 sereno Sereno 10 9 93 1020 10 N/NE 9.3
Oggi h: 02:20 sereno Sereno 11 9 87 1020 10 N/NE 7.4
Oggi h: 01:50 sereno Sereno 11 9 87 1020 10 N/NE 9.3
Oggi h: 01:20 sereno Sereno 11 9 87 1020 10 N/NE 7.4
Oggi h: 00:50 sereno Sereno 12 9 81 1020 10 NE 7.4
Oggi h: 00:20 sereno Sereno 12 9 81 1020 10 NE 7.4
Ieri h: 23:50 sereno Sereno 12 10 87 1020 10 N 1.8
Ieri h: 23:20 sereno Sereno 12 10 87 1020 10 N 5.5
Ieri h: 22:50 sereno Sereno 11 9 87 1020 10 N 5.5
Ieri h: 22:20 sereno Sereno 11 9 87 1020 10 N 3.7
Ieri h: 21:50 sereno Sereno 11 9 87 1020 10 N 3.7
Ieri h: 21:20 sereno Sereno 12 9 81 1020 10 E 9.3
Ieri h: 20:50 sereno Sereno 12 9 81 1020 10 E 9.3
Ieri h: 20:20 sereno Sereno 13 10 81 1020 10 E 9.3
Ieri h: 19:50 sereno Sereno 13 9 76 1020 10 E 9.3
Ieri h: 19:20 sereno Sereno 13 9 76 1020 10 E 9.3
Ieri h: 18:50 sereno Sereno 14 9 71 1021 10 N 9.3
Ieri h: 18:20 sereno Sereno 14 10 76 1021 10 E 7.4
Ieri h: 17:50 sereno Sereno 14 10 76 1021 10 E 7.4
Ieri h: 17:20 sereno Sereno 16 10 67 1021 10 N 5.5
Ieri h: 16:50 sereno Sereno 16 10 67 1021 10 N 7.4
Ieri h: 16:20 sereno Sereno 17 10 63 1021 10 N/NO 9.3
Ieri h: 15:50 sereno Sereno 17 10 63 1021 10 N 5.5
Ieri h: 15:20 sereno Sereno 18 9 55 1021 10 O/NO 7.4
Ieri h: 14:50 sereno Sereno 18 10 59 1021 10 N/NO 7.4